Other Surface Observations
Issued by NWS Charleston, SC

Home | Current Version | Previous Version | Text Only | Print | Product List | Glossary On
Versions: 1 2 3 4 5 6 7 8 9 10 11 12 13 14 15 16 17 18 19 20 21 22 23 24 25 26 27 28 29 30 31 32 33 34 35 36 37 38 39 40 41 42 43 44 45 46 47 48 49 50
000
SXUS52 KCHS 290826
OSOCHS
CAEOSOCHS ALL

MARINE OBSERVATIONS
NATIONAL WEATHER SERVICE CHARLESTON SC
300 AM EST THU JAN 29 2015

...DOWNTOWN CHARLESTON AND HARBOR...

CITY           SKY/WX    TMP DP  RH WIND       PRES   REMARKS
WATERFRONT PRK   N/A     43 N/A N/A NE7         N/A
FORT JOHNSON   NOT AVBL

...LAKE MOULTRIE...

CITY           SKY/WX    TMP DP  RH WIND       PRES   REMARKS
PINOPOLIS      NOT AVBL

...LAKE AND SUPPLEMENTAL COASTAL OBSERVATIONS...

STATION/POSITION TIME  TEMP    WIND        PRES    WAVE   SWELL
                       AIR SEA DIR/SP/G            HT/PER HT/PER/DIR
                 (UTC) (F)     (DEG/KT/KT) (MB)    (FT/S) (FT/S/D)
FORT PULASKI     0800   47 52   60/ 10/ 12 1027.3R
SAPELO ISLAND    0700   35      30/  2     1026.0F
UPR LAKE MARION  NOT AVBL
WINYAH BAY       NOT AVBL
LAKE MURRAY      0800   38      90/  3/  4 1026.1S
ACE BASIN NERRS  NOT AVBL


...C-MAN AND BUOY OBSERVATIONS...

STATION/POSITION TIME  TEMP    WIND        PRES    WAVE   SWELL
                       AIR SEA DIR/SP/G            HT/PER HT/PER/DIR
                 (UTC) (F)     (DEG/KT/KT) (MB)    (FT/S) (FT/S/D)
BUOY 41004       0750   50 67   40/ 10/ 14 1026.0F   4/ 6   3/ 6
BUOY 41008       0750   49 54   60/ 10/ 14 1026.3F   3/ 8   2/ 90/ 8
FOLLY BEACH CMAN 0800   45      30/  7/  8 1027.6R
CAPERS NS BUOY   0700   45      60/  8/ 10   N/A
FRIPP NS BUOY    0700   47      70/  8/ 10 1026.1F
5E ST. MARYS GA  NOT AVBL


STATION/POSITION TIME  TEMP    WIND        PRES    WAVE   SWELL
                       AIR SEA DIR/SP/G            HT/PER HT/PER/DIR
                 (UTC) (F)     (DEG/KT/KT) (MB)    (FT/S) (FT/S/D)
FRYING PAN BUOY  0750   47 65   20/ 12/ 16 1027.4F   4/ 6   3/ 60/ 6
BUOY 41025       0750   40 71  340/ 17/ 19 1025.5F   6/ 9   5/ 20/ 9
CAPE LOOKOUT NC  0800   36      10/  8/ 12 1026.5F
BUOY 41002       0750   56 72  340/ 17/ 21 1024.0R  10/ 9   7/ 20/ 9
BUOY 41010       0720   62 75   30/ 14/ 19 1023.9R
ST AUGUSTINE FL  0800   53      40/ 13/ 15 1025.9F

$$



USA.gov is the U.S. government's official web portal to all federal, state and local government web resources and services.